Regional Weather Roundup
Issued by NWS

Home | Current Version | Previous Version | Text Only | Print | Product List | Glossary Off
Versions: 1 2 3 4 5 6 7 8 9 10 11 12 13 14 15 16 17 18 19 20 21 22 23 24 25 26 27 28 29 30 31 32 33 34 35 36 37 38 39 40 41 42 43 44 45 46 47 48 49 50

000
ASUS43 KFSD 251410
RWRSD

WEATHER ROUNDUP FOR SOUTH DAKOTA
NATIONAL WEATHER SERVICE SIOUX FALLS SD
900 AM CDT SAT APR 25 2015

NOTE: "FAIR" INDICATES FEW OR NO CLOUDS BELOW 12,000 FEET WITH NO
SIGNIFICANT WEATHER AND/OR OBSTRUCTIONS TO VISIBILITY.


SDZ001>005-009-010-012>017-251500-
NORTHWEST AND NORTH CENTRAL SOUTH DAKOTA

CITY           SKY/WX    TMP DP  RH WIND       PRES   REMARKS
BUFFALO          N/A     43  42  97 SE7       29.64S
FAITH            N/A     44  42  93 E10       29.72R
MOBRIDGE       CLOUDY    45  43  93 E10       29.73R FOG
$$

SDZ012>016-024>037-041>051-057-063-072>074-251500-
SOUTHWEST AND SOUTH CENTRAL SOUTH DAKOTA

CITY           SKY/WX    TMP DP  RH WIND       PRES   REMARKS
RAPID CTY ARPT FOG       43  42  97 W7        29.70S VSB 1/4
PIERRE         FOG       45  44  97 NE13      29.71R VSB 1
CUSTER         SUNNY     44  37  76 NE3       29.71S
ELLSWORTH AFB  CLOUDY    43  43 100 SW5       29.69  FOG
PHILIP         CLOUDY    47  46  97 NE12      29.71R FOG
PINE RIDGE     CLOUDY    43  41  93 W6        29.70R
SPEARFISH      FAIR      48  39  71 CALM      29.69S
WINNER         FOG       51  49  92 E12       29.69R VSB 1/2
$$

SDZ004>011-016>023-039-040-251500-
NORTHEAST SOUTH DAKOTA

CITY           SKY/WX    TMP DP  RH WIND       PRES   REMARKS
ABERDEEN       CLOUDY    45  42  89 E10       29.78R FOG
WATERTOWN      CLOUDY    42  40  92 E12G22    29.76R FOG
BROOKINGS      CLOUDY    43  39  87 E17       29.75R
SISSETON         N/A     43  43 100 SE13      29.80R
$$

SDZ017-020-022-023-036>040-048>070-251500-
SOUTHEAST SOUTH DAKOTA

CITY           SKY/WX    TMP DP  RH WIND       PRES   REMARKS
SIOUX FALLS    CLOUDY    46  41  82 E17       29.72R
HURON          CLOUDY    47  44  90 E13       29.74R FOG
CHAMBERLAIN    CLOUDY    47  46  95 NE9       29.71R FOG
MITCHELL       LGT RAIN  48  46  93 E8        29.72R FOG
YANKTON        CLOUDY    46  41  81 E17       29.68R
$$

ABBREVIATIONS USED IN REMARKS
   TC - TEMPERATURE IN CELSIUS
  WCI - WIND CHILL INDEX
   HX - HEAT INDEX
  VSB - VISIBILITY




USA.gov is the U.S. government's official web portal to all federal, state and local government web resources and services.